GEFSSE_500_meanwind_150.txt.gz
Wind_Speed
17 16 16 15 14 13 12 12 11 10 9 8 8 7 7 7 8 8 8 9 9 9 9 9 9 10 11 12 13 13 14 15 16 17 18 19 20 21 22 23 23 24 24
18 17 17 16 15 14 13 12 11 10 10 9 8 8 8 8 7 7 7 8 8 8 9 9 10 11 12 13 14 15 16 16 17 18 20 21 22 23 24 24 25 26 26
18 18 17 17 16 15 14 13 12 11 10 9 8 8 7 7 7 7 7 8 8 9 10 10 11 13 13 14 15 16 17 18 19 19 21 22 23 24 25 26 26 27 28
19 19 18 18 16 15 14 13 12 10 9 9 8 7 7 7 7 7 8 8 8 9 10 11 12 14 14 15 16 17 18 19 20 21 22 23 24 25 26 27 28 29 29
19 19 19 18 17 15 14 13 11 10 9 9 8 8 8 8 8 8 8 8 9 10 11 12 13 14 15 16 17 18 19 21 21 22 23 24 25 26 27 28 29 30 30
20 19 19 18 17 16 14 13 12 11 10 9 9 8 8 8 8 8 8 9 10 11 12 13 14 14 16 17 18 20 21 22 23 24 25 26 27 27 28 29 30 30 31
20 19 19 18 17 16 15 13 12 11 10 9 9 8 8 8 8 8 9 10 11 12 13 14 15 16 17 18 20 21 22 23 24 25 26 27 27 28 29 30 30 31 32
21 20 20 19 18 17 15 14 13 11 11 10 9 9 9 9 9 9 10 11 12 13 14 15 16 17 19 20 21 23 24 24 25 26 27 28 29 29 30 31 31 32 33
22 21 20 20 19 17 16 15 13 12 11 11 10 10 9 9 9 10 10 12 13 14 15 16 17 19 20 22 23 24 25 26 27 28 28 29 30 30 31 32 32 33 33
22 22 21 20 19 18 17 15 14 13 12 11 11 10 10 10 10 11 12 13 14 15 16 17 19 20 22 23 24 25 26 27 28 28 29 30 31 31 32 32 33 33 34
22 22 22 21 20 19 18 16 15 14 13 12 11 11 11 11 12 12 13 14 15 16 17 18 20 22 23 24 25 26 27 27 28 29 30 31 31 32 32 32 33 33 34
24 23 22 22 21 20 18 17 16 15 13 13 12 12 12 12 13 13 14 15 16 17 19 20 22 23 24 25 26 27 28 28 29 30 31 31 31 32 32 33 33 34 34
25 24 23 22 21 20 19 18 16 15 14 14 13 13 13 13 14 14 15 16 17 19 20 22 23 24 25 25 26 27 28 29 29 30 31 31 32 32 32 33 33 34 34
25 25 23 23 22 21 20 18 17 16 15 15 14 14 14 14 15 15 16 17 19 20 21 23 24 24 25 26 27 28 29 30 30 31 31 32 32 32 33 33 33 34 34
27 25 24 23 23 22 21 20 18 17 16 16 15 15 15 15 15 16 17 18 20 21 22 23 24 25 26 27 28 29 30 30 30 31 31 32 32 32 33 33 34 34 34
28 27 26 25 24 23 22 21 19 18 18 17 16 16 16 16 16 17 18 19 21 22 23 24 25 26 26 27 28 29 30 31 31 32 32 32 32 33 33 33 33 33 33
30 29 27 26 25 24 23 22 21 20 19 18 18 17 17 17 18 18 19 20 22 23 24 25 25 26 26 27 28 29 30 31 32 32 32 32 32 32 33 33 33 33 33
32 30 29 28 26 25 24 23 22 21 20 19 19 19 19 19 19 19 20 22 23 24 24 25 25 26 27 28 29 30 31 32 32 32 33 33 33 32 32 33 33 33 34
33 32 31 29 28 27 26 25 23 22 21 21 20 20 20 20 20 21 22 23 23 24 25 26 26 27 28 29 30 31 32 32 33 33 33 33 33 33 33 33 33 34 35
35 34 32 31 30 29 27 26 25 24 23 22 21 21 21 21 22 22 23 24 24 25 26 26 27 28 29 30 31 32 33 33 33 33 33 33 33 33 34 34 34 35 36
37 35 33 32 31 30 28 27 26 26 25 24 23 22 23 23 23 24 24 25 25 26 26 27 28 29 30 31 32 32 33 34 34 34 34 34 34 34 35 35 35 36 37
38 37 35 34 32 31 30 29 28 27 26 25 24 24 24 24 25 25 25 26 26 27 27 28 29 30 31 32 33 33 34 34 34 34 34 35 35 35 36 36 37 37 38
40 38 36 35 34 33 32 31 30 29 27 27 26 26 26 26 26 26 27 27 28 28 29 29 30 31 32 33 34 34 35 34 35 35 35 36 36 36 37 37 38 39 39
41 39 38 37 36 35 34 33 31 30 29 29 28 28 28 27 27 28 28 28 29 29 30 30 31 32 33 34 34 35 35 35 35 35 36 37 37 37 38 39 39 40 40
43 41 40 39 38 36 35 34 33 31 31 31 30 29 29 29 29 29 29 29 30 30 31 32 32 33 34 34 35 35 36 36 37 36 36 37 38 38 39 40 40 41 42
45 43 42 40 39 37 36 35 34 33 33 32 31 31 30 30 30 30 30 30 31 31 32 33 33 34 35 35 35 36 36 37 37 37 38 38 38 39 40 41 42 42 44

GEFSSE_500_meanwind_156.txt.gz
Wind_Speed
20 19 17 16 15 14 13 12 11 10 10 9 8 8 7 7 7 7 7 7 7 7 7 7 8 9 10 11 12 12 13 14 15 16 17 18 20 20 21 22 23 24 25
21 20 19 18 17 16 15 14 13 12 11 10 9 9 8 8 8 7 7 7 7 7 7 8 9 10 11 12 12 13 14 15 16 17 18 19 20 21 22 23 24 25 26
22 21 20 19 18 17 16 15 14 13 12 11 10 10 9 8 8 7 7 7 7 7 8 9 9 10 11 12 13 14 14 16 17 18 19 21 22 23 24 25 26 26 27
23 22 21 20 19 18 17 16 15 14 13 12 11 10 9 8 8 7 7 7 7 7 8 9 10 11 12 13 13 14 16 17 19 20 21 22 23 24 25 26 26 27 28
24 24 23 21 20 19 18 16 15 14 13 12 11 10 9 9 8 8 7 7 7 7 8 9 10 11 12 13 14 15 17 18 20 21 22 23 24 25 26 27 27 28 29
25 25 24 22 21 19 18 17 16 15 14 13 12 11 10 9 9 8 7 8 7 8 9 10 11 12 12 13 14 16 17 19 20 21 22 23 24 25 26 27 28 29 29
26 25 24 23 22 20 19 18 17 16 14 13 12 11 10 10 9 8 8 8 8 9 9 10 11 12 13 14 15 17 18 20 21 22 23 24 25 26 27 28 29 29 30
26 25 24 24 23 21 20 19 18 17 15 14 13 12 10 10 9 8 8 8 9 9 10 11 12 13 14 15 16 18 20 21 22 23 24 25 26 27 28 28 29 29 30
27 25 25 24 23 22 20 20 19 17 16 15 13 12 11 10 10 9 9 9 9 10 11 12 13 14 15 16 17 19 20 21 23 24 25 26 27 27 28 29 29 29 30
27 26 25 25 24 23 21 21 20 18 17 15 14 12 11 11 10 10 10 10 11 11 12 13 14 14 16 17 19 20 21 22 23 24 26 26 27 28 29 29 30 30 31
28 27 26 25 24 23 23 22 21 19 18 16 15 14 12 12 11 11 11 11 12 13 13 14 14 15 17 18 19 21 22 23 24 25 26 27 28 29 29 30 30 31 31
29 28 27 26 25 24 24 23 22 20 19 17 16 15 14 13 12 12 12 12 13 14 14 14 15 17 18 19 20 21 22 23 25 26 27 28 29 29 29 30 31 31 32
30 29 27 26 26 25 25 24 23 21 20 19 17 16 15 14 13 13 13 13 14 14 14 15 17 18 19 20 21 22 23 24 25 26 27 29 29 30 30 31 31 32 32
31 29 28 27 27 26 26 25 24 23 21 20 18 17 16 15 14 14 14 14 15 15 15 16 17 18 19 20 21 22 24 25 26 27 29 29 30 30 31 31 32 32 32
32 31 29 28 28 27 27 26 25 24 22 21 20 18 17 16 15 15 15 15 16 16 16 17 18 19 20 21 22 23 25 26 27 28 29 30 31 31 32 32 32 32 32
33 32 30 29 28 28 28 27 26 25 24 23 21 20 19 17 17 16 16 16 16 17 17 18 19 20 21 22 23 24 25 26 28 29 30 31 31 32 32 32 33 33 33
34 33 31 30 29 29 29 28 27 26 25 24 23 22 20 19 18 17 17 17 17 18 18 19 20 21 22 23 24 25 26 27 28 29 30 31 32 32 33 33 33 33 34
36 34 33 31 31 30 29 29 28 27 26 25 24 23 21 20 19 19 19 19 18 19 19 20 20 21 22 24 25 26 27 28 29 30 31 32 32 33 33 34 34 34 35
37 36 34 33 32 31 30 30 29 28 27 26 25 24 23 22 21 20 20 20 20 20 20 21 22 23 24 25 26 27 28 29 30 31 32 33 33 33 34 34 35 35 36
39 38 36 34 33 33 32 31 30 28 28 27 26 25 24 23 22 21 21 21 21 21 22 22 23 24 25 26 27 28 29 30 31 32 32 33 34 34 35 35 36 36 36
40 39 38 36 35 34 32 31 30 29 29 28 27 26 25 24 23 23 22 22 22 22 23 23 24 25 26 27 28 29 29 30 32 32 33 34 34 35 35 36 36 37 38
42 40 39 38 36 35 33 32 32 31 30 29 28 27 27 26 25 24 23 23 23 24 24 25 26 26 27 28 29 30 30 31 32 33 33 34 35 36 36 37 37 38 39
43 42 40 39 37 36 35 34 33 33 31 30 29 28 28 27 26 25 24 24 25 25 26 26 27 27 28 29 30 31 31 32 33 34 34 35 36 37 38 38 39 39 40
43 42 42 41 39 38 37 35 34 33 32 31 31 30 29 28 27 26 26 26 26 27 27 28 28 29 29 30 31 32 32 33 34 34 35 36 37 38 39 39 40 41 41
44 44 43 42 41 39 38 37 35 34 33 33 32 31 30 29 28 28 27 27 28 28 29 29 29 30 30 31 32 33 33 34 35 35 36 37 38 39 39 40 41 42 43
46 45 44 43 42 40 39 38 37 35 35 34 33 32 32 31 30 29 29 29 29 30 30 30 30 31 31 32 33 34 34 35 36 37 37 38 38 39 40 41 42 43 44

GEFSSE_500_meanwind_162.txt.gz
Wind_Speed
23 22 20 19 18 16 15 13 12 11 10 9 8 7 6 6 5 4 3 3 3 4 5 5 6 6 7 9 9 10 11 12 13 15 16 17 18 18 20 21 21 22 23
25 24 22 21 20 18 17 15 14 12 11 10 10 9 8 7 6 5 4 4 4 4 5 5 6 7 8 9 10 11 11 13 14 15 16 17 18 19 20 21 22 23 24
26 26 25 23 22 20 19 17 16 14 13 12 11 10 9 8 7 6 5 4 4 5 5 5 6 7 8 9 10 11 12 13 14 16 17 18 19 20 21 22 23 24 24
28 28 27 25 24 23 21 19 18 16 15 13 12 12 10 9 8 6 5 5 5 5 5 5 6 7 9 10 10 11 12 13 15 17 18 19 20 21 22 23 24 25 25
30 29 28 27 26 24 22 20 19 18 16 14 13 13 11 10 9 7 6 6 5 5 5 6 6 8 9 10 10 11 12 14 16 17 18 19 21 22 23 24 25 25 26
31 30 29 28 27 25 23 22 20 19 17 15 14 13 12 11 10 8 7 7 6 5 5 6 7 7 8 10 11 12 13 15 16 17 19 20 22 23 24 25 26 26 27
32 31 31 29 28 27 25 23 21 20 18 16 15 14 13 12 11 9 9 8 7 6 6 6 7 8 9 10 11 12 14 15 17 18 20 21 23 24 25 26 27 27 28
33 33 32 31 29 28 26 24 23 21 19 17 16 15 14 13 12 11 10 9 8 6 6 7 8 9 10 11 12 13 14 16 17 19 21 22 23 25 26 27 27 28 28
35 34 33 32 31 29 28 26 24 22 20 18 17 16 15 14 13 11 10 9 8 7 7 8 9 10 11 12 13 14 15 16 18 20 21 23 24 26 27 27 28 29 29
36 35 34 33 32 31 29 28 26 23 21 20 19 18 16 15 13 12 11 10 9 9 9 9 10 11 12 13 14 15 16 17 19 21 22 23 25 26 27 28 29 29 30
36 35 34 33 32 31 30 29 27 24 23 21 20 19 17 16 14 13 12 11 10 10 10 10 11 12 13 13 14 15 17 18 20 21 23 24 26 27 28 29 30 30 31
36 36 35 34 33 32 31 30 28 26 24 23 22 20 19 17 16 14 13 12 11 11 11 12 12 13 13 14 15 16 18 19 21 22 23 25 26 27 28 29 30 31 32
38 37 36 34 33 32 32 30 28 27 26 25 23 22 20 19 17 16 14 13 13 13 12 13 13 14 14 15 16 17 19 20 22 23 24 25 27 28 29 30 31 32 33
39 38 37 35 34 33 32 31 29 28 27 26 25 23 22 20 19 17 16 14 14 14 13 14 14 14 15 16 17 18 20 21 23 24 25 26 28 29 30 31 32 33 34
40 39 38 37 35 34 33 32 30 29 29 28 27 25 23 22 20 18 17 16 15 15 14 15 15 16 16 17 18 19 21 22 24 25 26 27 29 30 31 32 33 34 34
41 40 39 38 36 35 34 33 32 31 30 29 28 27 25 23 21 20 18 17 16 16 16 16 16 16 17 18 19 20 22 23 24 25 26 28 29 31 32 33 34 34 35
42 41 40 39 38 36 35 34 33 32 31 30 29 28 26 24 23 21 20 19 18 17 17 17 17 18 18 19 20 21 23 24 25 26 27 29 30 32 33 34 34 35 36
43 42 41 40 39 38 36 35 34 33 32 31 30 29 27 25 24 23 21 20 19 19 18 18 18 18 19 20 21 22 23 25 26 27 29 30 31 33 34 34 35 36 37
44 44 42 41 40 39 38 36 35 34 33 32 31 30 28 27 25 24 23 22 21 20 20 20 20 20 20 21 22 23 24 26 27 28 30 31 32 34 34 35 36 37 38
46 45 44 42 41 40 39 37 36 34 33 32 31 31 29 28 27 25 24 23 23 22 21 21 21 21 21 22 23 24 25 27 28 29 31 32 34 35 35 36 37 39 40
47 46 45 43 42 40 39 38 36 35 34 33 32 32 30 29 28 27 26 25 24 24 23 23 22 22 23 23 24 25 26 28 29 30 32 33 35 36 37 38 39 40 41
49 47 46 45 43 41 40 39 38 37 35 35 34 33 31 30 29 28 27 26 26 25 25 24 24 24 24 25 26 27 28 29 30 32 33 35 36 37 38 39 40 41 42
49 47 46 45 44 42 41 40 39 38 36 35 34 33 32 31 30 29 28 27 27 26 26 26 25 26 26 27 27 28 29 30 31 33 34 36 37 38 39 40 41 42 43
50 48 47 46 45 44 42 41 39 37 36 34 34 34 33 32 31 30 29 29 28 28 27 27 27 27 28 28 28 29 31 32 33 34 35 37 38 39 40 41 42 43 44
51 49 48 47 46 45 44 42 40 39 37 36 36 35 34 33 32 31 30 30 29 29 29 28 28 29 29 29 30 30 31 33 34 36 36 38 39 40 40 41 42 43 44
52 51 49 48 47 46 45 43 41 39 39 38 37 36 35 34 33 32 32 31 31 30 30 30 30 30 30 30 31 32 33 34 36 37 38 39 40 40 41 42 43 44 45

GEFSSE_500_meanwind_168.txt.gz
Wind_Speed
24 23 23 22 21 20 19 18 17 16 15 14 13 12 11 10 9 8 7 6 6 5 4 3 2 2 2 3 4 4 5 6 7 8 9 10 11 13 14 15 16 18 19
26 25 24 24 23 22 21 20 19 18 16 15 14 13 12 11 10 9 8 7 6 6 5 4 3 3 3 3 4 4 5 6 7 8 9 11 12 13 15 16 17 19 19
28 27 27 26 25 24 23 22 21 20 18 17 16 15 14 13 11 10 9 9 8 7 6 5 4 4 3 3 4 4 5 6 7 8 10 11 12 14 16 17 18 19 20
31 30 29 28 28 27 25 24 23 22 21 19 18 17 15 14 13 12 11 10 9 8 7 6 5 4 4 4 4 5 6 7 8 9 10 12 13 15 16 17 18 19 20
34 32 31 31 30 29 27 26 25 24 23 22 20 18 17 16 15 13 12 11 10 9 8 7 6 5 4 4 5 5 6 7 8 9 11 12 14 15 17 18 19 20 21
36 35 33 33 32 31 29 28 27 26 25 23 22 20 19 18 17 15 13 12 12 10 9 8 7 6 5 5 6 6 7 8 9 10 11 13 14 16 17 18 20 21 22
39 37 36 34 34 33 32 31 29 28 26 25 23 22 20 19 18 16 15 14 13 12 10 9 7 6 6 6 6 7 8 8 9 11 12 14 15 16 18 19 20 21 22
40 39 38 37 36 35 34 33 31 30 28 26 25 23 21 20 19 18 16 15 14 13 11 10 8 7 7 7 7 8 8 9 10 12 13 15 16 17 18 20 21 22 23
42 41 40 39 37 36 36 34 33 32 30 28 26 25 22 21 20 19 18 16 15 14 13 11 10 9 8 8 8 9 9 10 11 12 14 15 17 18 19 20 22 23 24
44 43 42 41 39 38 37 36 35 34 32 30 28 26 24 22 21 20 19 18 16 15 14 13 11 10 9 9 9 10 10 11 12 13 15 16 18 19 20 21 22 24 25
46 45 44 43 41 40 39 38 37 35 34 32 30 28 26 24 22 21 20 19 17 16 15 14 12 11 11 10 10 11 11 12 13 14 16 17 19 20 21 22 23 25 26
46 46 45 44 43 41 40 39 38 37 36 34 31 29 27 25 24 22 21 20 18 17 16 15 14 12 12 12 12 12 12 13 14 15 17 18 19 21 22 23 24 26 27
47 47 46 45 45 43 41 41 40 39 37 36 33 31 29 27 25 24 22 21 20 18 17 16 14 13 13 13 13 13 13 14 15 17 18 19 20 21 23 24 25 27 28
49 48 48 47 46 45 43 42 41 40 39 37 35 33 31 29 27 25 24 23 21 19 18 17 15 14 14 14 14 14 15 16 16 18 19 20 21 22 24 25 27 28 29
50 49 50 48 47 46 45 43 42 41 40 39 36 34 32 30 28 27 25 24 22 20 19 18 16 15 15 15 15 16 16 17 18 18 20 21 22 24 25 26 28 29 30
51 51 51 50 48 47 46 45 43 42 41 40 38 36 34 32 30 28 27 25 24 22 20 19 18 16 16 16 16 16 17 18 19 19 21 22 23 25 26 28 29 30 32
53 52 52 51 50 48 47 46 44 43 43 41 39 37 35 33 32 30 29 27 25 23 21 20 19 18 17 17 17 17 18 19 20 21 22 23 24 26 27 29 30 32 33
54 53 52 51 50 49 48 47 45 44 43 42 40 39 37 35 33 32 30 28 26 25 23 21 20 19 19 18 18 18 19 20 21 22 23 24 26 27 28 30 32 33 35
55 54 53 52 51 50 49 48 46 45 44 43 41 40 38 36 34 33 31 30 28 26 25 23 22 21 20 20 20 20 20 21 22 23 24 25 27 28 30 31 33 34 36
55 54 54 53 52 50 49 48 47 46 45 43 42 40 39 37 36 34 32 31 29 27 26 24 23 22 22 21 21 21 22 22 23 24 26 27 28 29 31 33 34 35 37
55 55 55 53 52 51 49 48 47 46 45 44 42 41 39 38 37 35 34 32 31 29 27 26 25 24 23 23 23 23 23 24 25 26 27 28 29 31 32 34 35 37 38
55 55 54 53 52 51 50 49 48 47 46 44 43 42 41 39 37 36 35 33 32 30 29 28 26 25 25 24 24 24 25 25 26 27 28 29 31 32 34 35 36 38 39
54 54 54 53 53 52 51 50 49 48 47 45 43 42 41 40 38 37 36 35 33 32 30 29 28 27 26 26 26 26 26 27 28 28 30 31 32 34 35 36 38 39 40
53 53 55 54 53 53 52 51 49 48 46 45 44 43 42 41 39 38 37 35 34 32 31 30 29 28 28 27 28 28 28 29 30 30 31 32 33 35 36 37 39 40 41
54 54 55 54 53 53 53 51 50 49 47 46 45 44 43 42 40 39 38 36 35 34 33 32 31 30 29 29 29 30 30 31 31 32 32 33 34 36 37 38 40 41 42
54 55 55 55 54 53 52 51 50 49 48 47 46 45 44 42 41 40 39 37 36 35 34 33 32 32 31 31 31 31 32 32 33 33 34 34 35 37 38 39 40 42 43